Portland, ME

9:02 PM EDT on September 29, 2016 (GMT -0400)
Portland International

Weather History for KPWM - March, 2014

Change the Weather History Date:

Saturday, March 1, 2014

  Actual Average Record
Temperature  
Mean Temperature 17 °F 29 °F  
Max Temperature 31 °F 38 °F 58 °F (1985)
Min Temperature 3 °F 20 °F -5 °F (1980)
Degree Days  
Heating Degree Days 48 36  
Month to date heating degree days 48 36  
Since 1 July heating degree days 5287 5078  
Cooling Degree Days 0 0  
Month to date cooling degree days 0 0  
Year to date cooling degree days 0 0  
Moisture  
Dew Point 4 °F    
Average Humidity 53    
Maximum Humidity 69    
Minimum Humidity 36    
Precipitation  
Precipitation 0.00 in 0.13 in 3.01 in (1900)
Month to date precipitation 0.00 0.13  
Year to date precipitation 8.32 6.76  
Snow  
Snow 0.00 in 0.50 in 13.00 in (2012)
Month to date snowfall 0.0 0.5  
Since 1 July snowfall 78.8 46.9  
Snow Depth -    
Sea Level Pressure  
Sea Level Pressure 30.30 in    
Wind  
Wind Speed 6 mph (WSW)    
Max Wind Speed 17 mph    
Max Gust Speed 22 mph    
Visibility 10 miles    
Events      
T = Trace of Precipitation, MM = Missing Value Source: NWS Daily Summary

Daily Weather History Graph

Daily Weather History Graph

Search for Another Location

Airport or City:

Trip Planner

Search our weather history database for the weather conditions in past years. The results will help you decide how hot, cold, wet, or windy it might be!

Date:

Astronomy

Mar. 01, 2014 Rise Set
Actual Time 6:17 AM EST 5:29 PM EST
Civil Twilight 5:49 AM EST 5:58 PM EST
Nautical Twilight 5:15 AM EST 6:31 PM EST
Astronomical Twilight 4:42 AM EST 7:05 PM EST
Moon 6:07 AM EST (3/1) 6:16 PM EST (3/1)
Length of Visible Light 12h 09m
Length of Day
11h 12m
New Moon, 0% of the Moon is Illuminated
Mar 1
New Moon
Mar 8
First Quarter
Mar 16
Full
Mar 23
Last Quarter
Mar 30
New

Hourly Weather History & Observations

Time (EST) Temp. Windchill Dew Point Humidity Pressure Visibility Wind Dir Wind Speed Gust Speed Precip Events Conditions
12:51 AM 6.1 °F - -5.1 °F 60% 30.45 in 10.0 mi Calm Calm - N/A   Clear
1:51 AM 5.0 °F -2.1 °F -4.0 °F 66% 30.45 in 10.0 mi NNW 3.5 mph - N/A   Clear
2:51 AM 3.9 °F -5.3 °F -5.1 °F 66% 30.45 in 10.0 mi NW 4.6 mph - N/A   Clear
3:51 AM 3.9 °F -3.4 °F -6.0 °F 64% 30.43 in 10.0 mi NNW 3.5 mph - N/A   Clear
4:51 AM 6.1 °F -2.8 °F -6.0 °F 58% 30.43 in 10.0 mi NNW 4.6 mph - N/A   Clear
5:51 AM 7.0 °F -3.3 °F -8.0 °F 51% 30.42 in 10.0 mi NNW 5.8 mph - N/A   Clear
6:51 AM 3.0 °F -9.3 °F -6.0 °F 66% 30.43 in 10.0 mi WNW 6.9 mph - N/A   Partly Cloudy
7:51 AM 8.1 °F -2.0 °F -5.1 °F 55% 30.42 in 10.0 mi WNW 5.8 mph - N/A   Partly Cloudy
8:51 AM 12.9 °F 3.8 °F -2.9 °F 49% 30.41 in 10.0 mi WNW 5.8 mph - N/A   Clear
9:51 AM 19.0 °F 10.0 °F -0.0 °F 43% 30.41 in 10.0 mi NW 6.9 mph - N/A   Scattered Clouds
10:51 AM 24.1 °F 18.2 °F 1.9 °F 38% 30.38 in 10.0 mi WSW 4.6 mph - N/A   Overcast
11:51 AM 26.1 °F 15.0 °F 5.0 °F 41% 30.35 in 10.0 mi South 12.7 mph 20.7 mph N/A   Mostly Cloudy
12:51 PM 27.0 °F 15.2 °F 7.0 °F 43% 30.30 in 10.0 mi South 15.0 mph - N/A   Mostly Cloudy
1:51 PM 27.0 °F 16.7 °F 8.1 °F 45% 30.26 in 10.0 mi SSW 11.5 mph - N/A   Mostly Cloudy
2:51 PM 28.0 °F 17.5 °F 9.0 °F 45% 30.22 in 10.0 mi South 12.7 mph 19.6 mph N/A   Overcast
3:51 PM 28.0 °F 20.8 °F 9.0 °F 45% 30.21 in 10.0 mi SSW 6.9 mph - N/A   Overcast
4:51 PM 28.0 °F 19.3 °F 9.0 °F 45% 30.18 in 10.0 mi South 9.2 mph - N/A   Overcast
5:51 PM 28.9 °F 22.8 °F 10.9 °F 47% 30.17 in 10.0 mi SW 5.8 mph - N/A   Mostly Cloudy
6:51 PM 28.9 °F 25.2 °F 10.9 °F 47% 30.15 in 10.0 mi SW 3.5 mph - N/A   Overcast
7:51 PM 28.9 °F 25.2 °F 12.0 °F 49% 30.14 in 10.0 mi SW 3.5 mph - N/A   Overcast
8:51 PM 30.0 °F 24.1 °F 17.1 °F 59% 30.12 in 10.0 mi SSW 5.8 mph - N/A   Overcast
9:51 PM 30.0 °F 24.1 °F 16.0 °F 56% 30.11 in 10.0 mi SW 5.8 mph - N/A   Overcast
10:51 PM 30.0 °F 24.1 °F 16.0 °F 56% 30.08 in 10.0 mi SW 5.8 mph - N/A   Overcast
11:51 PM 30.0 °F 25.2 °F 16.0 °F 56% 30.06 in 10.0 mi WSW 4.6 mph - N/A   Overcast